This is the latest recevied weather packets stored in our database for station/object KF5JED-13. If no packets are shown the sender has not sent any weather packets the latest 10 day(s).
| Time | Temp. | Humidity | Pressure | Rain* | Wind** | Luminosity | Snow |
|---|---|---|---|---|---|---|---|
| 1778252906 | 20° C | 51% | 1012.8 hPa | 0 mm | - | 537 W/m² | - |
| 1778252603 | 19.44° C | 53% | 1012.9 hPa | 0 mm | - | 530 W/m² | - |
| 1778252299 | 18.89° C | 54% | 1012.9 hPa | 0 mm | - | 235 W/m² | - |
| 1778251995 | 19.44° C | 54% | 1012.8 hPa | 0 mm | - | 538 W/m² | - |
| 1778251692 | 18.89° C | 55% | 1013.1 hPa | 0 mm | - | 408 W/m² | - |
| 1778251390 | 18.33° C | 57% | 1012.8 hPa | 0 mm | - | 242 W/m² | - |
| 1778251088 | 17.78° C | 58% | 1012.7 hPa | 0 mm | - | 190 W/m² | - |
| 1778250784 | 17.78° C | 58% | 1013.1 hPa | 0 mm | - | 263 W/m² | - |
| 1778250481 | 17.78° C | 58% | 1012.8 hPa | 0 mm | - | 306 W/m² | - |
| 1778250178 | 18.33° C | 57% | 1013 hPa | 0 mm | - | 300 W/m² | - |
| 1778249874 | 17.78° C | 58% | 1013.1 hPa | 0 mm | - | 413 W/m² | - |
| 1778249572 | 17.22° C | 61% | 1013.3 hPa | 0 mm | - | 347 W/m² | - |
| 1778249269 | 17.22° C | 61% | 1013.5 hPa | 0 mm | - | 257 W/m² | - |
| 1778248966 | 16.67° C | 62% | 1013.2 hPa | 0 mm | - | 272 W/m² | - |
| 1778248661 | 16.11° C | 63% | 1013.3 hPa | 0 mm | - | 269 W/m² | - |
| 1778248358 | 15.56° C | 64% | 1013.8 hPa | 0 mm | - | 234 W/m² | - |
| 1778248053 | 15.56° C | 64% | 1013.7 hPa | 0 mm | - | 157 W/m² | - |
| 1778247752 | 15° C | 65% | 1013.3 hPa | 0 mm | - | 224 W/m² | - |
| 1778247447 | 15° C | 65% | 1013.1 hPa | 0 mm | - | 227 W/m² | - |
| 1778247145 | 14.44° C | 66% | 1013.3 hPa | 0 mm | - | 204 W/m² | - |
| 1778246843 | 13.89° C | 68% | 1012.9 hPa | 0 mm | - | 205 W/m² | - |
| 1778246540 | 13.89° C | 69% | 1012.9 hPa | 0 mm | - | 177 W/m² | - |
| 1778246235 | 13.33° C | 70% | 1012.7 hPa | 0 mm | - | 151 W/m² | - |
| 1778245932 | 12.78° C | 71% | 1013 hPa | 0 mm | - | 130 W/m² | - |
| 1778245628 | 12.22° C | 72% | 1013 hPa | 0 mm | - | 120 W/m² | - |
* Rain latest hour (hover to see other rain measurements)
** Current wind speed in m/s (hover to see current wind gust speed)